Wind_Gust
12 14 10 13 17 19 20 16 14 28 22 22 19 10 14 15 15 22 23 20 20 18 13 20 22 17 18 18 16 16 17 21 24 22 22 21 19 20 20 19 18 14 13 14 17 16 14 12 12 10 11 11 9 9 8 7 5 6 9 9 8 9 9 7 8 6 6 5 9 5 6 6 4 4 5 6 7 7 4 5 6 5 7 6 6 4
14 12 13 20 16 16 19 18 17 17 23 22 16 13 14 13 16 19 21 19 18 15 13 16 19 22 23 19 18 17 16 19 21 21 22 20 17 17 19 18 17 14 15 17 14 16 14 13 11 9 10 11 12 9 8 7 9 7 6 8 9 7 5 5 6 7 6 7 9 7 9 6 6 7 7 5 5 4 4 4 4 4 5 5 6 4
12 13 15 12 17 11 12 18 20 21 16 15 16 15 18 18 16 23 26 23 16 17 19 16 16 22 18 17 22 21 17 19 19 21 21 19 17 18 18 20 20 15 14 14 16 16 15 15 11 9 8 9 10 10 8 8 8 7 6 6 7 8 7 8 11 10 7 5 7 6 6 7 8 8 8 7 4 3 3 4 3 5 5 7 6 8
9 17 14 12 9 11 14 13 17 14 18 16 21 16 15 25 21 12 24 15 16 22 17 16 16 19 24 22 18 18 23 26 23 19 20 17 19 18 19 19 21 21 17 13 14 15 15 12 10 8 7 9 8 8 9 7 8 7 7 6 6 8 8 7 9 6 6 5 5 7 6 6 6 6 5 6 5 6 4 4 5 4 5 5 7 6
16 14 9 9 10 11 17 12 12 13 13 14 15 15 16 16 15 22 20 19 17 24 21 21 22 16 10 18 18 24 21 22 24 18 17 13 15 16 17 19 20 21 21 16 13 15 12 9 8 10 10 9 9 10 9 8 7 7 7 6 6 7 7 7 5 5 6 6 6 8 7 6 6 5 7 6 6 5 6 4 4 4 4 4 6 6
14 15 8 11 10 10 8 13 19 17 10 14 16 18 20 22 23 26 24 20 15 14 17 21 20 16 13 16 19 17 15 13 19 14 13 14 14 15 15 14 17 18 19 20 14 13 16 16 12 11 11 11 11 11 10 8 7 6 6 7 6 5 5 5 4 5 5 5 5 5 6 6 5 5 6 5 6 6 3 3 4 4 4 3 5 8
14 12 11 16 14 12 21 16 12 13 13 10 16 18 21 14 20 24 19 14 13 19 16 19 26 17 10 13 12 13 15 13 16 13 12 15 15 13 13 15 15 15 17 20 22 14 13 14 14 9 10 9 8 10 7 7 7 7 7 6 6 5 4 6 5 5 4 4 5 5 5 6 8 6 7 5 5 6 6 4 2 4 5 2 3 3
9 14 12 11 19 13 13 18 15 13 16 12 12 16 19 20 20 24 26 15 19 20 23 25 24 21 12 13 16 13 18 14 16 18 17 14 13 12 10 12 12 16 16 18 17 16 11 11 12 10 7 6 7 6 8 6 6 6 7 7 7 6 5 5 7 6 7 6 8 6 8 9 9 6 9 6 6 6 4 3 5 5 7 5 4 5
16 16 12 15 13 17 14 16 11 11 24 19 11 22 19 16 22 24 20 16 18 16 13 19 16 22 12 13 18 12 15 15 19 15 19 20 18 12 13 16 16 15 16 15 16 16 17 13 10 9 7 7 6 6 6 7 5 5 6 6 5 4 5 5 5 6 6 4 5 7 6 6 7 7 10 8 6 6 5 4 4 5 6 5 5 7
12 15 11 10 18 20 15 11 8 13 19 13 9 12 13 16 20 20 18 17 14 20 17 16 12 26 14 9 12 13 13 16 15 15 18 18 20 19 17 13 16 17 10 15 17 14 14 15 16 14 15 12 8 5 5 4 4 4 5 5 5 4 4 5 3 4 5 6 6 4 5 6 8 7 8 8 8 6 4 5 5 4 5 3 4 5
12 5 10 13 17 16 13 11 10 7 8 10 14 15 16 14 14 18 15 16 16 15 20 21 16 19 16 9 10 11 16 15 15 16 18 20 20 22 21 20 16 18 14 12 13 13 12 12 14 12 15 14 10 7 7 5 5 4 5 5 5 6 5 4 4 4 7 8 7 7 6 7 7 7 7 7 8 7 7 7 7 6 7 4 6 3
14 13 15 15 15 11 10 10 11 8 10 10 15 16 17 13 12 14 11 13 19 13 15 17 21 19 21 12 18 18 18 20 15 16 17 19 22 21 16 21 16 16 15 15 13 11 12 11 10 11 10 11 11 12 11 8 7 7 7 6 7 7 7 6 6 6 9 9 9 7 6 7 8 6 7 8 8 9 9 8 9 8 4 5 5 3
15 14 13 10 9 15 9 17 16 15 13 16 13 17 16 13 12 11 15 20 10 14 20 24 24 22 19 17 18 18 18 18 20 20 19 17 18 17 19 21 20 15 11 13 11 14 14 11 10 10 10 9 9 9 10 10 8 9 9 7 8 9 7 7 6 9 10 10 9 9 9 7 8 8 7 8 7 7 8 9 7 7 8 7 6 6
12 16 12 14 14 10 15 17 15 13 10 12 15 13 17 12 12 12 20 13 14 16 19 22 23 27 16 18 17 22 17 20 22 20 19 19 18 17 18 19 18 18 16 13 12 11 11 11 12 11 12 10 9 9 10 9 7 7 8 8 8 10 8 8 7 7 8 9 9 9 16 19 15 10 13 14 10 8 7 8 9 9 10 9 9 7
9 12 13 15 15 15 17 14 13 16 16 14 13 14 13 19 22 16 16 19 17 12 17 19 17 12 13 12 26 19 22 18 19 19 16 16 16 14 19 22 19 13 8 7 10 9 8 11 10 9 9 9 9 9 8 8 8 8 7 7 9 10 9 8 10 8 10 12 11 21 18 20 13 21 24 20 17 16 17 16 12 10 9 10 9 9
9 11 17 10 11 12 13 10 11 17 16 18 23 18 18 12 14 15 15 20 14 15 16 20 18 14 20 21 18 20 23 21 20 19 19 18 17 16 14 14 13 13 14 14 11 13 12 10 9 7 7 8 8 7 7 8 6 7 8 8 9 10 10 10 10 11 11 13 11 18 20 18 18 26 26 25 22 26 25 22 16 12 10 11 9 8
11 10 9 9 8 7 13 12 17 11 17 18 15 13 17 12 22 19 13 10 14 22 16 13 13 15 16 23 25 26 19 24 23 22 21 20 19 17 16 16 18 21 22 18 17 16 12 12 11 6 5 5 6 7 6 6 6 7 7 7 9 9 10 9 11 11 11 14 11 13 16 12 16 23 21 24 23 24 26 21 16 14 12 9 15 22
14 13 10 12 15 13 7 13 12 13 13 17 18 16 10 14 19 24 20 8 14 18 19 16 13 17 16 10 15 17 19 18 19 20 22 18 19 18 16 18 22 22 23 18 10 7 10 15 10 8 9 7 4 4 6 7 6 5 6 5 7 10 12 12 13 15 14 14 14 16 15 12 18 21 21 23 26 26 26 22 18 15 11 7 18 19
11 15 15 13 14 14 9 10 14 10 10 18 19 11 15 13 16 14 22 12 14 13 12 14 17 20 23 12 14 17 19 22 22 21 21 19 19 17 16 17 19 20 17 14 10 7 10 9 6 7 10 12 12 8 5 7 9 8 8 8 8 11 16 12 12 13 15 16 15 14 12 14 21 21 23 24 27 24 17 17 17 14 12 9 14 16
12 10 12 12 13 14 10 14 10 10 18 18 15 18 18 17 8 12 9 12 22 12 11 13 11 12 15 14 20 14 21 21 21 23 22 21 19 19 18 18 18 16 13 13 10 10 8 8 7 6 10 13 14 10 13 16 13 19 15 11 11 13 15 13 10 11 19 18 14 13 12 17 20 22 24 26 27 25 19 16 18 16 10 11 17 9
12 9 9 19 12 10 16 16 11 10 13 17 18 15 16 14 17 16 15 10 18 22 13 17 12 11 14 14 13 18 20 18 18 20 20 21 20 18 18 18 17 17 13 13 14 14 14 11 8 9 12 12 10 9 9 13 19 20 17 13 11 11 11 11 10 9 14 14 18 15 17 21 21 23 27 29 29 26 25 22 19 17 17 16 15 15
11 14 9 16 14 15 13 14 15 17 18 15 14 10 12 12 14 12 7 14 16 23 23 20 15 12 16 18 18 19 18 20 21 18 17 17 19 19 17 16 15 13 13 14 14 13 15 11 13 15 13 8 9 13 13 11 9 15 9 11 11 11 10 9 11 11 13 13 17 14 16 20 22 19 17 24 26 26 25 23 14 19 17 17 16 15
10 9 13 8 9 13 14 13 10 15 18 16 18 16 14 14 15 14 14 10 18 21 20 26 22 13 16 17 15 17 18 20 19 18 17 17 16 15 16 15 13 12 13 16 16 18 17 15 15 18 13 14 13 9 10 11 12 9 13 10 10 11 11 9 9 8 14 16 14 11 12 11 14 17 17 21 23 22 23 20 17 17 17 17 16 14
10 11 12 14 10 11 15 13 17 13 11 17 17 13 14 13 12 15 16 16 23 12 18 13 22 14 11 14 22 16 16 16 18 18 19 18 16 14 15 13 14 14 12 13 16 17 17 16 14 18 16 20 18 13 13 15 16 15 9 9 10 10 10 11 9 14 16 14 12 11 12 13 13 14 14 14 19 19 20 21 22 20 16 17 19 19
15 11 13 8 12 10 14 16 19 17 17 15 11 14 14 18 17 13 14 12 20 16 16 20 17 11 11 17 18 17 17 17 17 18 15 15 13 14 16 14 14 12 12 13 14 15 16 16 17 18 19 19 18 18 13 15 14 13 11 9 12 10 8 10 10 11 10 9 11 11 12 11 11 12 13 13 11 16 18 20 22 18 13 17 19 20
13 9 12 12 12 9 7 11 11 13 13 12 14 15 18 16 18 14 10 15 18 14 21 22 21 16 15 17 18 17 17 17 18 16 17 17 14 16 16 13 14 14 15 14 15 14 15 17 19 19 16 19 16 18 17 16 19 17 12 12 10 11 9 10 9 9 9 10 10 12 13 12 10 11 11 11 11 11 14 20 17 13 18 16 16 21
8 8 10 13 15 14 12 12 9 12 11 18 9 15 15 16 16 15 14 18 17 13 21 16 22 20 16 16 16 16 17 17 16 15 18 18 15 15 13 15 15 14 16 17 15 15 14 15 16 17 15 17 17 16 17 19 21 19 14 13 14 12 10 8 8 9 9 9 8 9 11 12 12 11 10 11 11 11 10 16 12 14 18 20 18 16
9 11 13 12 8 9 11 8 8 8 17 13 19 15 18 18 14 14 19 22 19 28 16 15 17 21 15 15 15 17 16 14 14 15 16 16 18 16 14 16 15 20 17 18 17 18 18 15 16 16 17 16 19 21 19 18 20 20 17 16 15 13 9 10 9 8 8 7 8 8 9 10 9 10 11 11 11 11 10 10 12 12 17 19 20 20
10 10 14 7 5 13 15 13 21 23 19 21 18 16 17 19 20 18 14 16 12 20 26 16 17 19 16 16 15 14 14 13 16 16 15 15 17 17 19 21 19 18 17 18 17 14 13 14 14 14 16 18 17 18 18 18 19 17 16 16 15 13 12 12 10 9 9 8 7 8 8 10 10 10 11 12 12 13 13 13 10 12 14 20 20 20
14 7 6 8 10 8 14 20 19 20 18 24 21 20 25 21 19 18 19 18 20 18 18 18 17 16 16 15 14 14 13 15 15 15 16 18 17 17 18 17 15 15 15 15 15 13 13 15 15 14 15 17 18 20 21 19 18 20 19 17 14 14 15 13 17 13 13 12 10 8 9 10 10 11 12 13 12 12 12 13 13 12 10 13 18 19
14 8 11 7 12 13 8 15 18 19 20 19 17 19 19 20 21 21 21 19 23 17 17 18 18 16 14 14 18 15 14 15 16 17 17 16 17 17 16 16 15 16 18 18 17 18 17 17 18 17 18 18 18 19 18 17 17 17 18 16 16 13 13 15 18 17 14 14 14 11 10 10 10 11 13 12 12 12 11 12 13 13 12 11 12 17
11 8 8 9 13 9 10 17 18 21 20 17 11 11 17 16 17 13 25 13 17 17 15 16 17 14 11 15 17 17 19 20 19 19 18 17 16 16 16 16 17 18 18 18 19 18 19 19 18 17 17 17 17 18 18 15 19 18 19 15 16 16 12 14 14 15 14 15 14 14 13 13 13 14 13 13 13 12 11 9 11 12 13 12 11 13
7 10 8 9 15 9 7 16 16 14 17 15 13 14 15 13 13 16 16 14 18 23 21 16 14 15 14 13 16 15 17 18 18 18 15 15 16 17 16 17 18 17 18 19 20 21 21 19 19 16 15 16 18 18 20 18 18 18 20 17 14 21 18 18 16 15 16 15 15 15 13 15 16 17 19 18 16 16 14 11 11 11 12 14 12 10
12 11 10 13 16 14 11 10 10 14 10 11 13 10 10 18 18 18 14 13 11 13 17 16 21 14 15 16 17 13 14 13 13 13 13 16 16 15 17 17 18 18 18 18 19 20 19 17 17 16 15 16 18 20 18 18 18 18 18 20 18 21 20 20 18 18 17 17 16 15 13 17 17 18 18 18 19 18 19 16 14 11 10 11 12 11
8 9 14 10 15 13 15 12 15 7 8 11 8 9 13 17 20 18 13 15 14 13 18 17 15 15 14 15 16 14 15 14 14 15 14 16 15 15 15 17 18 18 18 17 19 18 16 15 14 14 16 19 20 16 18 21 20 18 19 20 18 17 18 19 21 21 20 20 19 20 17 14 16 17 18 20 21 20 19 19 17 16 13 12 11 11
4 7 8 7 11 11 9 10 13 8 11 9 11 12 13 19 19 23 14 13 14 13 18 21 19 16 14 15 14 16 20 17 17 16 15 14 14 16 17 17 18 17 18 18 18 17 17 18 14 15 14 16 19 20 21 18 18 20 21 22 21 19 19 19 18 19 18 18 17 19 20 20 15 17 19 20 21 21 21 20 19 17 15 12 12 10
12 14 12 8 11 16 8 9 11 15 12 12 11 12 11 16 14 23 17 12 5 12 13 15 11 13 17 18 19 18 18 20 19 16 13 16 17 17 16 16 15 16 17 19 19 18 17 16 14 16 15 16 19 22 20 21 20 19 19 20 22 21 19 18 17 18 17 18 18 18 17 19 21 19 20 19 20 22 21 20 20 20 17 15 13 12
8 15 8 16 6 16 14 11 10 10 12 15 11 13 8 10 11 12 21 12 7 11 8 17 20 21 20 18 18 17 17 24 17 13 14 15 15 15 17 15 16 17 18 19 20 19 18 16 16 18 19 18 19 20 20 20 20 20 21 20 20 21 21 21 20 20 19 18 17 20 18 18 18 19 19 20 21 20 21 20 19 19 19 15 14 13
10 14 12 16 11 7 11 14 11 12 16 14 12 9 9 14 16 11 17 13 11 11 11 17 17 19 21 20 16 21 21 19 19 14 12 14 16 17 16 17 18 18 18 20 21 21 21 18 17 20 19 17 20 22 18 18 19 21 20 19 19 19 18 18 18 20 20 19 20 21 18 17 18 17 18 19 22 21 20 19 18 18 20 19 12 12
9 8 9 11 8 7 11 10 8 11 9 9 10 11 11 12 10 15 13 13 10 8 12 18 17 16 17 17 17 20 23 19 18 18 15 15 16 16 16 16 17 18 19 20 21 20 19 19 21 20 20 20 18 18 21 18 18 15 15 19 16 18 18 18 17 19 19 18 19 19 20 19 18 18 19 20 21 22 19 16 18 21 21 22 19 16
9 11 10 10 10 10 13 9 14 12 12 10 10 10 12 8 13 11 11 19 12 11 14 18 17 15 16 16 17 22 14 15 17 13 14 15 15 16 15 16 17 18 19 20 20 16 22 21 20 22 21 21 21 21 21 22 18 18 17 17 17 18 19 19 19 19 17 17 19 21 21 21 17 19 20 19 20 19 18 18 19 20 23 23 23 22
7 6 8 7 10 11 14 13 13 15 13 9 9 10 11 10 7 12 15 9 17 14 13 18 18 14 16 15 17 18 17 16 15 14 14 15 15 14 16 17 17 18 18 17 15 19 22 22 17 19 19 19 24 23 22 23 21 19 19 19 18 17 18 20 20 18 19 19 20 21 22 21 21 19 19 20 21 22 20 20 19 20 21 22 22 22
15 12 10 11 9 10 11 12 11 11 11 9 11 7 10 12 14 15 16 11 15 16 18 14 20 15 21 17 14 16 14 13 14 14 13 14 14 15 15 15 16 17 17 17 17 19 22 21 21 21 18 20 20 22 22 18 18 18 19 22 18 20 20 20 19 18 18 19 20 20 21 20 21 21 20 21 21 20 21 20 19 20 20 21 20 21
9 13 10 14 13 11 8 12 13 15 17 7 10 12 12 15 16 16 24 14 12 17 18 16 12 14 18 24 18 15 13 14 13 13 13 12 12 13 13 13 15 16 18 18 18 17 18 20 20 18 17 20 18 19 19 19 18 18 20 21 19 19 19 18 19 19 20 20 20 20 20 19 21 22 21 21 21 20 22 22 20 18 18 19 19 20
11 11 16 14 14 11 11 13 13 14 14 12 13 16 15 14 13 12 16 18 17 15 15 20 15 15 17 21 18 19 17 14 13 12 15 10 11 12 13 14 16 17 19 19 20 17 17 21 18 17 18 19 20 20 20 19 20 19 18 20 21 22 23 20 20 21 20 20 20 20 19 20 21 23 23 21 19 20 21 20 20 22 20 19 18 21
9 12 12 20 16 18 18 16 14 15 14 14 12 14 14 12 12 18 19 21 17 18 17 23 15 15 14 17 23 14 16 13 15 13 13 13 12 12 12 14 15 15 17 19 19 16 18 20 17 17 18 20 19 19 18 20 19 19 19 22 22 22 21 21 21 21 21 21 20 21 20 22 21 21 23 22 20 19 18 18 19 20 21 19 18 18
11 8 9 16 15 15 11 12 15 16 14 14 16 14 14 15 15 16 18 17 16 16 17 14 18 15 14 16 19 18 14 13 15 12 13 13 13 13 14 14 13 15 17 20 17 16 18 16 18 20 20 20 18 18 19 18 19 19 21 21 22 21 21 21 21 21 20 21 21 20 20 22 22 24 22 21 22 21 20 20 20 19 19 18 19 21
11 9 17 13 14 11 15 18 17 13 13 12 16 19 16 15 15 15 17 16 16 15 17 17 18 17 16 17 16 18 14 12 15 12 13 13 14 15 17 17 16 17 17 16 15 17 17 18 19 20 21 21 19 18 20 20 21 23 22 21 22 24 21 21 22 23 23 23 20 21 21 22 21 24 22 22 21 22 24 22 21 21 20 19 20 21
18 13 12 14 15 23 20 17 18 15 13 12 12 12 16 19 20 17 17 18 18 19 15 14 14 16 15 15 14 17 16 12 13 13 13 13 14 15 16 16 17 17 17 16 15 15 16 17 20 19 19 19 19 18 17 18 21 22 21 21 22 26 22 21 19 21 21 22 22 21 21 22 21 22 22 22 21 21 20 20 21 22 24 21 14 18
17 12 16 22 21 16 21 22 21 21 13 18 14 17 16 16 22 19 17 17 17 19 19 19 13 12 14 13 15 16 17 12 12 13 13 13 14 14 14 17 17 17 16 14 15 14 16 16 16 17 19 19 17 17 20 19 21 21 22 22 23 28 24 22 20 18 19 22 22 22 24 22 22 22 22 22 22 24 25 19 21 21 22 23 24 28
16 19 22 19 22 20 21 25 24 16 18 22 21 17 18 16 21 21 19 18 15 16 18 20 17 12 12 11 12 18 15 15 11 12 12 13 14 13 15 16 17 16 16 15 15 15 16 16 17 17 18 18 17 21 22 20 21 21 23 24 24 28 25 22 21 20 22 21 21 22 23 23 22 22 22 23 23 23 24 26 26 22 27 26 27 28
Wind_Speed
3 4 4 4 6 10 8 8 8 5 8 5 5 5 6 5 1 2 4 4 7 6 3 7 8 8 7 8 9 6 4 1 1 0 1 1 1 1 1 1 0 0 2 0 0 0 1 2 1 1 0 0 1 3 3 3 3 3 1 2 3 4 3 3 4 3 2 2 5 3 3 2 2 0 2 3 2 2 1 2 3 3 4 4 4 1
7 5 5 9 8 12 13 8 6 4 4 7 7 6 4 5 4 4 5 5 1 5 1 4 6 5 6 8 8 4 5 3 3 2 3 3 2 2 2 1 1 0 1 1 2 1 1 0 0 1 0 1 1 1 1 3 3 3 3 2 4 4 4 3 3 3 2 1 2 3 4 1 1 1 2 2 1 1 1 2 2 3 3 3 4 3
5 2 3 8 11 5 7 12 9 9 6 5 7 7 7 3 2 3 5 4 4 8 4 5 8 5 7 6 4 6 6 3 5 6 5 5 4 3 3 2 1 1 0 0 2 2 1 1 2 1 1 1 1 1 2 3 2 3 3 3 4 5 4 3 2 1 3 2 2 2 2 3 1 0 1 2 1 0 1 3 2 3 3 3 4 3
2 5 7 8 6 2 0 9 10 8 6 8 6 8 7 6 7 2 1 6 5 2 5 5 8 4 2 1 1 3 3 4 7 7 4 4 6 6 7 5 4 3 2 2 2 2 1 0 0 0 0 2 1 1 2 2 2 2 3 3 4 5 4 4 3 3 3 2 1 0 3 1 2 0 1 1 1 2 2 2 3 2 2 2 3 3
5 4 2 1 2 2 3 5 2 8 7 4 9 7 7 3 4 10 7 4 5 5 10 10 7 4 4 1 2 1 1 7 5 4 2 0 1 1 2 2 3 6 5 4 2 2 2 2 2 2 2 1 2 2 3 3 3 2 3 4 4 4 4 3 3 3 1 2 2 4 3 3 2 1 3 3 2 2 1 1 2 2 3 1 3 3
1 4 1 2 0 0 1 4 1 10 6 1 3 11 10 6 9 10 15 13 5 4 3 12 6 4 4 3 2 1 3 3 2 5 3 3 2 3 4 4 2 1 2 4 5 4 3 3 2 2 1 2 2 3 4 3 3 3 4 4 4 3 3 3 1 1 1 3 2 3 3 3 2 3 4 2 3 3 1 2 2 3 2 1 1 2
2 5 5 4 3 4 6 4 1 4 6 5 4 10 11 9 13 14 10 8 6 7 5 1 11 2 4 4 3 0 4 2 1 2 4 4 3 3 3 3 4 4 3 2 1 2 3 3 2 3 2 2 2 3 4 3 3 2 3 3 2 2 2 2 1 0 2 2 2 0 0 0 1 1 4 3 3 4 4 1 1 2 2 1 1 1
3 7 7 5 6 5 7 5 0 5 7 3 3 10 11 11 14 11 7 6 2 1 4 6 6 7 2 3 4 4 4 4 3 2 3 3 4 4 4 3 4 3 4 4 4 4 3 3 3 4 3 2 2 3 3 3 2 1 3 2 2 1 1 2 1 0 1 1 1 2 3 1 2 3 5 4 4 4 2 2 2 1 1 0 0 0
1 3 4 5 5 5 3 2 1 3 3 3 4 15 9 10 7 9 10 7 4 8 5 5 4 7 2 3 6 5 7 4 2 3 3 3 2 4 4 4 4 5 4 4 5 5 5 4 3 3 3 2 2 3 0 0 2 1 2 1 1 2 2 2 3 1 1 1 1 2 2 3 3 3 5 5 3 4 2 2 1 1 2 1 1 1
2 3 3 5 3 2 2 3 2 5 2 1 6 7 7 9 9 12 9 8 3 7 7 4 2 9 2 3 6 3 3 3 2 1 3 2 3 4 4 4 4 3 2 2 2 3 3 3 3 2 1 1 2 2 2 2 2 2 3 3 3 1 2 2 1 0 1 0 0 0 1 3 5 3 3 1 3 4 2 2 3 3 2 2 2 1
1 2 5 5 0 1 1 2 0 3 2 3 8 8 6 8 7 4 6 5 6 5 1 1 3 8 5 3 0 3 3 2 1 2 3 3 2 1 1 3 3 3 3 2 2 2 2 1 1 0 1 2 3 3 2 3 3 2 3 2 3 4 3 1 1 1 3 3 1 2 2 3 4 5 3 3 4 4 4 4 4 3 4 2 4 1
3 2 2 0 1 2 1 4 3 2 3 1 2 5 6 4 6 5 4 6 6 1 3 0 8 7 7 2 4 2 3 5 4 5 4 3 2 1 0 1 2 2 3 2 1 1 0 0 0 1 1 2 2 3 3 3 3 3 3 3 3 5 4 4 3 2 4 4 4 3 4 4 4 4 4 4 5 6 5 5 5 4 2 3 1 2
2 2 3 3 3 7 2 4 6 7 7 2 7 6 8 2 3 2 4 5 1 4 3 10 10 10 8 1 3 7 1 3 2 6 6 5 5 4 3 3 3 2 3 2 1 0 0 1 2 2 3 2 2 3 3 4 3 3 3 4 4 5 5 5 4 5 5 5 5 4 4 4 4 3 3 2 4 4 4 3 4 3 5 4 1 3
3 6 3 3 5 1 3 4 5 3 4 4 5 7 7 3 3 3 1 1 3 3 3 9 6 6 1 2 3 8 9 7 4 4 4 7 6 5 6 6 6 5 4 2 0 0 1 2 2 3 3 3 3 3 4 4 3 3 4 4 4 6 5 5 5 5 5 5 5 4 10 10 8 4 1 1 1 2 2 2 3 5 6 5 5 4
3 3 3 1 1 2 2 1 1 1 2 1 2 7 6 8 6 5 3 6 7 5 4 0 3 2 4 2 8 2 11 7 4 7 5 5 6 6 6 7 7 6 4 2 0 1 1 2 3 3 3 3 3 3 4 4 4 4 4 4 5 6 6 5 6 6 6 7 6 5 4 6 5 4 5 4 3 2 2 2 2 3 4 6 5 5
1 3 4 3 3 2 3 1 2 2 4 2 3 3 7 1 6 5 5 8 4 4 6 6 1 2 4 2 7 8 9 4 8 8 8 7 6 7 7 6 4 4 4 3 3 1 0 2 3 3 3 3 3 3 3 4 4 4 4 4 5 6 7 6 7 7 7 8 4 7 1 5 6 6 6 6 3 2 2 2 2 4 4 4 3 2
4 3 2 5 3 4 1 1 2 2 2 2 5 3 0 3 12 6 5 4 7 9 4 1 5 6 3 8 7 6 3 9 9 9 7 6 7 7 7 5 4 3 2 2 2 1 0 1 2 3 3 3 3 3 4 4 4 4 4 4 6 6 5 6 7 7 7 7 4 7 7 4 9 9 9 5 6 8 5 4 4 3 3 1 7 4
3 3 5 1 4 0 1 4 4 4 3 4 5 1 1 2 7 8 6 2 4 6 1 2 3 3 2 3 3 6 6 7 9 7 6 5 5 8 4 4 3 3 2 1 1 1 1 1 2 2 2 2 2 2 3 4 4 3 3 4 5 6 7 4 8 10 8 8 4 4 3 7 9 7 8 5 7 6 5 5 5 3 2 3 6 7
2 1 3 3 1 3 6 4 5 6 6 7 3 2 4 0 5 4 7 3 5 3 2 2 2 3 3 5 4 2 6 7 7 5 6 6 6 6 4 5 5 5 5 5 4 4 3 2 0 0 1 2 2 2 3 4 5 5 4 5 4 6 6 6 4 4 6 5 3 2 5 7 7 7 6 4 5 5 4 5 5 3 1 5 6 6
4 2 2 5 4 1 4 6 3 5 5 3 2 6 1 6 2 2 1 4 7 5 4 0 4 3 1 5 13 8 8 8 8 7 6 6 8 7 7 7 6 7 7 7 6 5 4 3 2 1 3 3 1 2 3 3 4 4 5 5 6 5 4 4 5 5 5 4 4 4 2 4 5 5 4 3 3 5 6 5 4 3 3 5 5 5
1 2 1 5 5 4 4 2 2 2 5 7 8 5 5 2 1 6 2 3 7 7 4 6 3 1 2 2 5 10 9 8 10 9 7 8 8 6 6 6 6 7 7 8 8 9 9 7 6 6 2 3 3 2 3 3 4 5 5 6 6 7 7 7 6 6 6 6 7 6 6 6 5 6 4 5 4 5 6 5 5 5 5 3 4 5
2 2 1 3 6 3 1 1 2 4 4 4 5 2 4 2 2 2 2 5 4 7 6 7 4 0 4 6 5 6 7 8 8 10 9 9 8 7 5 5 5 6 5 5 5 5 5 6 8 10 7 4 3 1 2 3 3 4 4 4 4 5 5 5 6 5 5 5 5 6 7 7 5 5 5 5 5 6 5 4 4 5 4 5 6 7
3 2 4 3 2 4 2 4 4 7 11 7 6 2 3 3 6 6 6 1 6 4 6 4 7 4 2 4 3 3 8 8 6 9 9 8 8 6 5 5 4 4 5 5 6 6 6 7 7 7 8 8 6 5 5 4 3 4 5 6 6 7 6 5 5 5 5 6 7 8 7 6 6 5 5 6 6 7 6 5 4 4 5 6 6 5
4 2 2 3 6 5 3 7 10 7 7 9 6 3 6 4 1 4 6 7 9 4 6 3 5 2 2 4 8 4 5 5 5 8 10 7 6 6 6 6 5 6 5 6 7 7 7 7 7 8 7 6 6 6 5 5 3 4 4 5 5 6 6 6 5 5 5 6 8 7 7 8 7 7 6 5 5 6 6 5 5 4 5 6 4 5
1 2 5 2 2 3 6 7 8 7 6 3 2 2 3 4 8 6 7 4 8 2 4 8 5 2 1 3 3 8 8 9 8 6 8 9 6 6 5 4 4 4 6 7 8 7 8 9 9 8 7 8 7 6 6 5 3 3 4 4 5 4 5 5 6 6 6 6 7 7 7 7 7 8 8 8 7 7 6 5 5 4 5 5 6 6
4 1 2 4 5 3 0 1 2 4 2 0 2 5 9 7 3 3 4 3 7 3 2 6 5 3 2 3 7 6 7 7 6 7 6 6 6 5 4 4 4 5 6 6 6 7 7 6 7 9 8 8 8 7 6 7 6 4 4 4 4 5 6 6 6 6 6 6 6 7 8 7 6 7 7 7 7 7 6 6 5 6 5 4 5 5
1 1 4 5 6 7 6 5 3 3 3 7 4 9 5 6 9 8 6 6 6 3 7 3 11 10 6 5 8 7 8 10 9 7 8 7 4 4 4 4 6 7 6 5 4 4 6 9 9 8 8 8 7 8 8 7 8 6 3 4 4 4 4 5 5 5 6 6 5 6 7 7 7 6 6 6 7 6 6 6 5 5 6 5 4 5
3 4 1 7 3 5 6 1 1 4 10 5 10 5 9 6 4 7 8 7 11 14 6 1 4 11 5 5 6 8 7 7 6 5 5 4 4 4 6 7 8 7 5 4 5 6 7 7 7 8 8 9 9 10 10 10 9 7 6 6 6 5 5 6 4 4 5 5 5 5 6 6 6 6 6 6 6 7 6 6 5 5 5 5 5 6
3 3 2 3 2 2 3 9 14 10 7 7 9 9 8 7 11 11 7 10 3 9 12 8 7 11 4 5 6 6 7 7 6 4 3 3 4 8 10 9 7 6 6 7 6 7 7 7 6 8 9 9 10 11 10 10 10 10 10 8 7 6 7 8 6 6 4 4 5 5 5 6 6 6 7 7 7 8 8 8 7 5 5 5 5 5
4 0 0 2 3 5 10 13 12 14 6 11 10 9 9 11 9 10 5 2 8 10 9 10 11 10 6 5 7 6 4 6 5 4 6 8 8 8 8 8 8 9 9 9 8 7 7 7 8 8 9 9 10 9 9 8 9 8 8 8 8 9 8 7 8 8 8 7 6 5 5 6 6 7 7 8 8 7 7 8 8 7 6 5 6 6
5 1 3 1 4 4 5 10 11 12 12 8 6 10 12 12 11 10 12 12 15 9 8 11 12 7 0 3 5 3 4 6 9 10 7 8 10 10 9 9 9 9 9 9 9 8 7 8 9 9 9 8 7 7 6 5 5 7 8 8 8 8 8 7 9 9 9 9 7 6 5 6 6 7 8 7 8 7 7 7 7 8 8 7 6 5
4 1 2 3 6 3 4 12 11 12 12 9 5 6 9 11 11 5 10 5 9 10 10 11 10 5 4 2 5 5 7 9 9 8 8 8 8 10 9 9 9 9 9 8 8 8 8 8 7 8 8 7 8 7 7 7 6 7 7 6 7 7 7 8 8 9 8 8 8 8 8 8 8 10 9 9 9 8 7 6 7 7 8 7 7 7
1 3 3 3 8 3 3 10 12 10 9 8 2 3 4 5 6 4 3 5 10 15 12 9 8 7 8 6 9 4 7 7 7 7 9 7 7 9 9 8 8 8 8 7 8 7 6 5 5 6 7 7 8 9 9 8 9 9 8 9 8 8 10 10 10 9 9 9 9 9 8 9 10 10 12 11 10 10 9 7 7 7 7 9 7 6
1 2 1 1 5 3 2 1 2 6 4 1 4 4 5 10 11 11 6 7 6 3 6 6 11 8 7 7 11 7 7 6 5 3 4 9 9 8 7 7 6 6 6 7 7 7 6 6 6 5 5 6 7 8 8 9 9 8 8 9 7 8 8 9 10 11 11 5 7 8 8 8 9 11 11 11 12 11 12 10 9 7 6 6 7 7
2 2 1 1 5 4 0 3 6 2 1 3 3 2 3 10 11 11 5 3 3 6 12 11 9 9 9 8 9 8 8 8 8 9 8 6 8 8 8 6 6 6 7 7 8 7 5 5 5 6 7 6 5 6 8 10 8 7 8 8 9 9 9 8 8 9 11 12 9 7 7 7 9 10 11 12 12 12 12 12 11 10 8 7 6 7
1 2 2 2 3 2 3 2 4 1 3 1 4 6 5 11 12 15 7 4 2 6 12 13 12 9 8 9 9 10 13 11 11 8 7 6 7 8 8 7 5 6 7 5 6 6 5 4 4 4 5 5 8 8 9 8 7 7 8 8 8 8 9 9 11 11 11 11 10 11 11 10 9 11 11 12 12 13 13 12 12 11 10 7 7 5
6 4 4 2 1 5 2 3 2 1 2 4 4 4 3 6 7 12 7 1 1 4 8 9 7 9 11 11 12 11 11 12 11 7 4 6 7 6 8 6 6 5 5 5 5 6 5 5 5 5 5 6 7 8 7 8 9 7 7 9 9 9 8 8 10 10 9 10 11 11 10 10 9 11 11 11 12 13 13 12 12 12 10 9 8 7
3 3 3 7 1 5 7 4 2 2 2 7 6 5 2 2 6 8 11 1 2 2 3 11 14 13 13 12 12 10 10 13 8 4 2 3 6 7 5 5 5 5 5 5 6 7 7 7 5 5 7 7 8 8 6 7 7 6 7 8 8 9 9 10 10 9 10 10 10 10 11 11 10 10 11 11 11 11 12 12 11 11 11 9 8 8
6 8 6 8 4 3 5 5 3 4 5 7 5 3 1 8 10 6 8 3 2 2 6 11 12 13 14 13 10 5 8 6 3 3 2 4 5 6 8 5 5 4 4 5 5 6 6 6 5 5 7 7 7 7 5 7 6 6 6 7 7 7 8 8 8 8 8 9 9 10 10 9 10 10 10 11 11 10 11 11 10 10 11 11 8 7
5 4 4 5 3 1 5 4 2 2 1 2 6 2 6 5 6 7 4 5 4 5 8 11 11 10 8 7 6 7 11 9 8 6 4 5 6 5 7 7 5 5 6 5 5 4 5 6 7 8 7 6 6 6 8 6 6 6 7 7 6 8 8 8 6 6 7 9 9 9 11 10 10 11 10 10 11 11 10 8 10 12 12 13 11 9
1 1 4 5 4 3 7 0 1 2 3 3 4 4 4 2 7 4 4 8 5 5 5 11 11 10 10 8 6 6 1 7 9 7 5 6 9 7 5 5 5 5 6 5 5 5 5 5 4 4 4 5 7 7 6 5 6 9 8 8 9 9 8 6 6 8 8 9 10 11 11 11 10 11 10 9 10 10 9 9 9 10 11 12 12 13
0 2 1 3 4 3 3 6 3 3 5 3 0 4 3 4 2 6 4 3 10 7 5 12 11 6 8 8 8 8 9 8 7 5 5 7 8 5 5 5 7 7 5 4 6 5 4 4 5 6 8 7 8 7 6 7 9 9 10 11 11 8 7 8 8 8 10 11 11 11 11 11 12 11 9 10 11 12 11 10 9 8 9 9 11 12
6 3 2 2 1 3 3 4 2 2 3 5 6 1 2 3 4 5 6 4 8 10 11 8 12 9 13 10 8 10 9 8 7 7 7 6 7 7 7 7 6 5 5 5 6 4 4 5 5 7 7 7 6 7 7 8 10 10 10 12 10 8 8 8 8 8 8 9 10 10 10 11 12 11 10 10 11 11 11 10 10 10 9 10 11 11
2 4 1 1 3 4 2 3 3 4 5 4 5 5 3 3 7 9 12 7 4 9 11 9 6 9 11 14 11 9 9 9 7 7 8 7 6 5 5 4 4 5 4 4 4 4 5 5 5 7 7 7 7 8 8 9 10 10 11 10 8 8 8 8 8 8 9 9 10 10 11 11 11 11 10 11 11 11 11 11 11 9 9 9 9 10
4 3 7 5 1 1 2 3 2 2 1 0 3 3 1 3 6 7 10 10 10 5 6 11 9 7 11 14 12 12 10 8 9 8 9 6 6 6 5 4 4 4 4 5 5 4 5 5 6 7 7 7 8 8 9 9 10 11 11 8 7 9 8 9 8 9 9 10 10 11 10 11 11 11 11 11 10 11 11 11 12 11 11 10 10 10
0 4 4 9 1 2 2 2 2 3 5 7 6 3 7 6 5 9 12 9 3 6 8 12 9 10 9 11 13 8 10 8 9 8 8 6 6 4 3 3 5 6 6 6 5 5 4 5 7 6 6 8 8 9 9 10 10 10 6 7 8 8 8 8 9 9 10 9 10 11 12 12 12 13 12 12 11 10 9 10 10 10 10 10 10 9
3 1 3 6 4 5 1 2 4 5 4 8 8 6 7 6 5 7 9 9 7 9 9 9 11 9 9 10 13 12 9 9 10 7 6 5 5 4 4 6 5 5 5 5 3 4 6 6 7 6 6 9 8 9 8 8 8 7 6 8 8 8 7 8 9 8 8 10 10 11 12 12 11 12 11 12 11 10 10 10 10 10 9 9 10 11
2 2 8 3 3 1 5 5 3 3 4 5 9 10 9 8 7 7 9 9 10 8 10 11 11 10 10 10 10 12 9 8 10 7 6 5 5 5 5 5 6 6 4 4 4 5 6 7 5 5 7 9 8 7 8 8 7 7 7 8 8 8 8 8 9 9 8 10 9 10 11 10 15 14 10 10 11 11 11 10 10 9 9 10 10 11
6 5 4 4 4 2 5 3 5 7 6 3 4 5 9 11 12 10 11 12 12 13 10 8 9 10 9 10 9 11 10 7 8 8 7 4 4 5 5 6 6 5 4 5 4 5 7 5 5 5 9 8 6 6 7 7 7 7 8 8 8 8 9 9 8 8 8 9 9 10 10 9 9 9 9 10 10 10 8 8 10 9 8 6 7 8
6 4 4 9 9 6 9 10 11 9 3 4 5 10 9 10 15 12 10 11 12 13 12 12 7 6 8 8 9 10 11 7 7 8 7 5 4 4 6 6 5 5 4 3 4 6 6 5 5 8 9 6 5 6 7 7 7 7 7 7 7 8 9 9 9 8 8 8 9 10 10 9 9 9 9 9 10 10 12 12 9 7 7 9 13 15
8 9 9 8 10 8 8 15 14 8 10 12 13 10 12 10 14 14 13 11 10 11 12 14 11 8 7 4 6 11 10 10 7 7 6 4 4 5 6 7 6 5 4 5 7 6 6 5 7 9 8 5 5 6 6 6 7 7 8 7 7 8 8 9 8 8 7 8 9 10 9 8 8 8 8 9 9 9 9 12 14 12 10 12 13 14
Wind_Direction
131 109 173 219 193 197 179 192 192 186 155 141 89 103 148 142 126 90 98 115 116 98 98 131 131 147 176 200 213 198 186 289 39 327 296 284 266 262 287 278 271 128 264 295 148 157 221 269 299 184 122 57 10 344 350 350 336 329 320 359 308 289 316 310 299 303 308 327 323 339 343 315 324 279 75 42 353 40 8 2 359 355 348 347 336 18
71 95 223 224 224 183 188 205 218 119 131 141 106 122 148 124 157 161 140 153 127 107 105 117 114 133 163 179 192 161 153 233 222 232 250 227 213 225 242 274 270 263 344 21 348 333 359 350 81 118 40 84 138 296 334 318 302 321 336 290 274 293 293 276 248 254 321 225 230 244 254 246 268 79 64 54 6 1 358 11 333 325 5 16 14 13
41 126 231 221 224 216 125 200 214 153 148 88 125 142 124 199 120 86 108 121 102 103 127 127 111 135 160 162 165 175 185 188 213 200 201 181 184 187 211 219 204 132 229 342 301 315 327 351 77 100 166 255 226 223 230 249 297 307 306 284 266 270 266 267 247 248 264 261 303 247 210 155 121 75 214 160 255 357 6 328 333 337 360 21 41 9
44 303 245 230 186 205 22 154 204 82 96 114 119 117 161 188 125 107 193 132 170 117 147 109 100 91 58 77 160 232 177 190 193 207 207 181 172 182 195 188 171 182 185 212 246 254 280 235 347 31 162 214 259 273 274 279 271 293 292 265 250 260 272 276 297 285 267 229 300 261 113 87 107 152 38 22 348 16 9 344 325 328 18 2 47 39
193 226 233 103 44 86 253 103 131 120 124 194 134 136 148 173 159 139 159 106 81 88 118 88 59 9 21 45 66 52 149 128 163 150 118 263 233 149 102 129 181 180 183 195 216 213 229 229 229 222 230 209 202 245 260 271 278 276 276 272 262 265 275 306 311 302 9 43 15 9 7 32 28 13 13 23 346 330 321 306 330 314 355 359 38 44
303 257 138 47 263 104 59 38 357 113 89 128 208 151 166 146 112 121 124 119 62 86 166 129 64 351 308 316 114 87 39 62 67 126 160 172 147 123 158 178 180 198 218 192 192 194 196 213 275 273 267 201 231 241 248 236 249 263 282 278 267 279 299 285 276 261 78 66 65 40 33 3 10 345 339 313 261 278 270 224 243 297 357 344 8 69
175 356 63 353 50 40 106 140 193 109 125 94 192 164 152 131 136 132 124 90 116 142 206 359 120 222 324 355 320 90 121 103 44 126 151 158 163 175 190 180 185 186 192 205 213 178 182 217 235 257 262 221 211 250 255 260 270 290 275 274 263 271 275 248 226 62 63 43 48 76 165 178 222 262 273 246 254 226 244 230 274 274 322 0 22 6
21 41 22 30 78 49 63 44 281 119 100 89 135 155 138 143 150 147 117 112 159 161 37 46 87 123 68 321 343 311 119 123 86 123 150 162 166 195 201 190 196 198 195 189 201 199 216 210 198 222 249 246 227 265 269 278 322 311 290 279 266 344 316 288 300 24 82 32 326 307 281 237 243 216 248 253 249 240 226 194 225 236 266 270 227 240
105 30 68 31 56 64 98 208 183 100 114 202 147 156 146 140 129 114 105 98 106 103 60 100 91 73 45 310 335 323 93 67 118 161 180 172 142 169 182 194 207 204 198 190 195 206 208 216 219 231 251 267 335 10 318 211 297 323 315 306 334 12 354 331 327 284 25 67 326 278 264 280 254 233 248 252 246 227 208 199 282 233 231 214 187 198
302 125 140 132 107 64 268 278 234 103 58 201 104 94 112 121 126 118 115 107 42 76 142 177 99 105 49 315 323 341 59 112 166 134 147 158 154 156 165 195 207 211 215 241 246 239 229 224 224 229 257 313 311 307 297 346 16 9 16 21 352 326 325 319 336 335 285 85 106 350 261 251 277 271 286 270 262 261 271 225 252 248 243 194 198 176
176 248 142 94 301 229 198 265 187 153 181 101 78 79 66 65 74 66 75 107 71 50 222 224 92 118 134 223 220 87 235 188 159 34 39 60 69 87 148 166 169 194 198 199 222 248 252 270 237 339 232 282 315 310 339 346 353 346 29 22 359 302 290 293 288 286 282 281 270 259 255 260 270 276 260 272 268 260 262 238 243 244 236 191 200 151
12 341 46 299 148 56 83 350 15 15 7 78 87 115 93 30 23 33 4 40 80 27 286 65 89 73 102 46 339 311 5 323 153 133 118 108 87 49 346 28 61 145 166 149 167 288 356 347 335 6 290 314 308 323 326 324 335 334 325 346 333 312 311 302 284 284 272 270 275 263 250 254 257 251 263 260 253 251 239 227 232 242 248 250 210 133
10 351 292 10 318 90 14 51 329 17 25 97 85 66 114 212 41 17 12 34 59 153 137 111 99 60 45 30 316 324 282 242 133 136 133 117 85 63 49 36 36 65 109 129 133 160 303 276 289 296 287 309 301 276 285 289 298 300 307 306 310 296 292 291 296 291 280 272 266 260 274 292 290 307 304 298 291 281 267 268 262 258 237 225 215 205
269 306 6 309 15 39 93 69 331 11 332 63 128 135 95 89 66 108 52 129 61 82 69 87 80 89 109 74 84 277 324 311 149 115 97 98 96 68 53 44 45 40 39 40 43 155 210 248 269 270 274 265 266 268 271 277 282 284 287 297 303 289 293 293 298 288 282 271 269 3 22 354 331 308 316 358 346 324 304 306 299 289 268 241 215 192
66 359 308 69 337 307 100 134 185 177 12 318 157 122 160 144 155 142 157 140 174 178 157 15 49 184 106 224 176 17 316 277 55 77 82 82 81 77 62 55 45 43 35 36 4 285 279 252 227 230 242 248 249 255 269 273 275 277 281 285 287 292 294 297 289 287 282 272 63 40 186 201 221 237 270 246 210 206 231 246 280 278 264 253 241 199
155 204 258 206 215 106 76 293 135 100 34 346 120 94 75 184 144 119 189 132 145 114 25 9 104 130 96 73 115 138 244 270 86 81 76 61 59 63 54 51 49 41 40 27 39 17 344 290 284 280 262 260 260 260 272 277 275 282 274 281 279 279 287 298 303 296 292 293 117 221 75 325 312 306 286 282 283 274 260 262 251 275 274 251 275 331
31 26 274 311 4 92 114 6 9 110 93 303 51 27 171 174 103 99 53 40 95 75 70 311 75 67 52 52 32 317 232 77 77 77 71 70 74 68 59 48 45 56 58 45 47 55 2 332 297 265 268 282 291 291 276 271 276 275 289 295 293 294 306 323 303 296 300 303 14 47 54 305 298 295 292 324 318 291 274 248 242 241 259 36 78 95
128 260 289 93 44 327 228 94 29 32 139 67 57 250 346 63 98 116 140 347 53 103 111 51 112 147 140 96 64 322 84 73 75 75 69 59 63 72 48 22 11 7 352 348 156 208 236 269 279 288 301 290 273 282 287 292 288 284 287 287 294 298 296 274 282 294 298 305 344 100 164 234 228 243 256 229 251 268 277 267 266 270 342 107 174 182
99 18 311 304 233 324 359 41 12 344 22 124 169 151 101 178 65 342 93 104 98 76 123 2 312 92 89 116 107 258 104 92 86 89 91 72 59 59 29 10 3 3 10 2 356 7 20 13 349 267 268 302 326 313 313 319 319 315 308 300 285 286 287 292 283 269 288 300 299 189 188 216 239 247 246 227 251 266 264 266 261 257 176 163 202 204
50 131 301 312 15 313 30 58 41 305 334 26 39 34 3 99 141 87 166 150 107 154 80 17 49 71 285 144 154 169 125 129 118 102 92 82 72 64 61 59 51 49 42 35 28 18 4 350 333 328 17 19 347 309 316 327 335 344 347 348 347 337 334 332 332 324 324 318 315 302 246 233 240 255 266 238 232 273 276 264 245 239 205 199 198 217
52 107 86 279 320 41 31 5 142 141 75 14 39 358 357 9 223 112 32 99 153 148 137 143 49 1 10 318 156 145 151 139 128 115 100 88 81 78 84 80 67 56 50 43 39 33 32 22 3 353 22 322 325 329 344 354 351 348 4 11 6 11 2 2 353 351 346 342 339 334 321 304 294 288 290 288 268 255 253 256 254 247 230 203 198 202
70 18 127 311 31 53 195 243 171 113 111 124 130 92 204 109 65 70 70 8 68 109 166 116 131 291 359 65 325 154 149 131 124 117 105 97 90 88 84 75 76 70 57 60 54 51 38 32 24 24 23 356 341 332 330 328 345 353 5 11 18 22 16 0 352 349 337 340 333 337 330 326 312 299 302 299 297 293 289 277 263 255 241 224 216 200
142 152 93 72 144 124 112 54 72 81 84 80 94 70 132 117 105 97 104 320 64 64 99 94 111 320 303 29 346 242 132 128 128 112 105 101 101 93 82 80 65 74 74 57 52 41 42 37 37 39 25 13 0 328 317 320 348 16 23 22 20 28 10 3 351 342 343 347 348 345 341 335 335 329 321 318 311 306 299 290 271 255 248 245 238 217
73 71 43 309 313 296 346 29 40 39 71 50 21 32 49 33 102 154 147 161 113 135 84 70 57 278 308 139 237 230 122 124 121 114 111 99 88 83 82 76 71 59 42 45 39 38 33 33 33 28 23 21 3 353 343 323 343 13 28 25 20 20 2 357 355 350 352 352 351 351 351 351 345 346 340 328 311 300 289 284 280 261 258 257 244 230
68 305 112 58 1 338 348 357 14 346 44 90 86 20 108 100 75 89 92 35 82 316 174 110 124 172 269 216 187 122 114 110 107 89 100 104 95 94 96 92 89 72 57 49 46 40 32 29 24 17 15 11 10 10 3 338 324 346 16 26 17 5 358 356 350 357 352 354 356 357 1 355 351 350 346 341 335 324 317 304 291 266 253 255 251 243
89 178 95 117 133 120 104 64 81 65 113 296 34 30 27 58 108 70 85 27 85 358 42 108 111 150 213 104 92 92 92 71 63 83 80 97 117 118 112 107 76 63 60 60 55 43 37 25 18 17 12 6 5 10 15 358 341 350 1 3 356 359 359 352 355 1 354 352 357 354 358 356 357 355 344 338 333 328 321 315 306 292 277 255 256 264
148 75 91 149 147 168 195 203 244 136 34 65 32 54 38 54 75 88 106 81 116 142 70 49 131 136 106 93 92 90 95 102 101 98 106 105 109 115 107 74 59 64 67 68 64 52 40 31 23 18 14 14 17 17 16 11 0 5 6 347 354 343 344 343 358 355 358 349 350 352 350 351 351 347 345 341 332 326 326 324 315 298 287 282 268 262
63 50 76 127 139 190 187 181 61 101 101 100 81 51 57 61 77 106 113 143 144 97 71 141 150 108 138 119 112 104 104 104 106 116 120 119 110 88 72 75 75 68 62 58 50 48 45 34 29 26 20 16 16 21 23 19 19 15 9 358 349 340 347 344 351 356 352 347 347 344 341 340 336 341 339 338 338 336 330 325 322 312 290 282 272 265
130 117 246 91 45 77 107 90 97 88 88 101 93 87 80 79 84 91 117 141 110 130 155 190 137 110 140 132 132 127 124 124 129 121 132 124 90 87 87 79 69 60 43 42 35 34 34 31 23 25 28 27 23 23 20 19 17 16 18 10 356 345 354 345 349 344 342 341 345 333 331 336 340 340 341 337 338 340 339 337 331 319 304 289 277 266
86 84 211 110 94 60 95 103 97 100 97 78 81 86 85 85 92 99 89 139 115 108 125 139 116 118 147 141 129 141 142 117 119 109 78 70 76 85 83 75 66 55 48 43 38 35 33 32 27 25 32 32 34 28 23 19 18 17 18 11 3 5 350 355 355 354 350 344 333 336 351 348 349 351 352 349 337 329 331 332 332 330 323 303 285 280
103 258 170 70 76 42 51 99 95 102 103 93 81 90 89 85 80 97 108 101 93 87 110 115 109 111 251 145 127 138 110 98 78 73 82 85 85 85 80 72 63 55 49 45 44 43 41 37 32 29 26 21 26 27 24 18 18 15 13 5 5 3 350 1 4 1 3 356 348 346 346 355 350 359 2 349 346 333 327 327 328 326 325 321 309 297
73 206 51 64 82 45 81 97 97 89 86 93 81 92 104 103 101 127 117 170 121 138 129 110 114 145 210 215 111 101 94 93 99 97 91 93 95 91 84 75 66 56 50 46 43 41 38 34 31 29 24 18 13 14 13 3 6 22 8 0 1 350 3 15 9 3 357 359 353 356 351 348 348 357 351 349 342 334 326 322 325 325 323 321 321 312
134 112 83 80 82 108 191 121 122 109 75 42 11 185 129 85 112 108 101 127 141 140 129 140 181 176 174 167 112 92 96 97 96 105 103 89 90 91 87 82 75 64 55 48 44 39 30 27 25 26 23 25 21 17 8 9 16 6 355 4 357 5 14 11 9 4 4 353 2 1 352 357 359 356 352 346 338 331 329 329 327 325 323 320 314 313
54 86 144 144 111 180 203 193 59 53 48 179 228 204 158 138 136 129 147 143 161 148 176 163 154 164 156 138 125 133 108 102 108 69 95 118 106 88 79 78 78 77 64 51 47 39 24 18 19 25 30 24 20 20 12 19 14 1 2 2 359 11 9 10 2 3 357 0 355 356 359 354 356 356 349 344 342 340 331 329 327 319 309 307 317 317
86 69 115 137 99 168 202 35 51 54 225 249 295 172 121 118 104 109 105 115 122 102 103 114 134 156 163 142 130 118 106 94 81 87 79 87 100 98 96 83 72 71 65 54 44 35 26 12 11 20 22 19 18 19 21 14 360 356 10 2 3 0 3 3 5 5 357 345 346 350 349 350 360 354 350 346 343 340 336 330 325 327 323 311 308 313
127 108 174 37 122 61 44 38 103 228 247 310 51 89 100 90 101 86 44 14 97 132 132 141 165 152 128 114 112 115 108 103 82 60 76 89 97 105 96 86 80 72 68 68 62 39 31 18 11 6 6 5 22 22 22 13 0 3 357 3 8 358 359 2 8 10 1 1 347 344 346 349 352 356 354 350 344 343 340 335 329 326 322 315 314 315
129 92 85 97 51 137 164 104 157 296 69 90 91 153 148 143 144 131 132 205 217 182 139 140 126 122 127 126 123 117 109 90 78 52 24 94 99 99 107 108 103 85 79 64 68 53 36 33 26 7 16 22 23 25 16 11 11 4 360 11 8 4 0 6 17 6 3 4 357 349 341 341 351 359 353 348 349 348 344 342 333 328 330 322 316 319
145 126 217 105 339 109 123 66 30 33 176 246 246 271 274 171 130 130 104 83 304 351 122 125 136 141 135 132 126 127 106 84 76 71 35 95 112 111 98 100 89 81 72 58 45 42 35 28 28 22 29 22 19 11 8 15 15 8 7 5 4 11 7 16 8 0 3 1 355 352 350 350 353 358 353 350 350 346 343 340 338 336 333 326 316 316
32 78 109 113 149 66 68 121 178 165 240 206 214 236 168 133 123 102 74 148 270 162 142 120 134 148 146 145 156 145 93 104 144 170 196 147 115 112 107 95 90 91 78 69 64 49 43 36 42 35 25 21 14 347 3 18 14 15 9 8 4 11 16 6 1 359 358 353 353 354 352 353 356 356 353 348 344 346 343 340 332 330 336 341 338 315
37 0 37 59 67 99 137 92 176 207 171 233 224 236 166 142 93 64 79 231 258 176 143 125 134 144 139 133 136 112 124 135 167 188 196 138 113 106 108 108 92 73 55 45 33 37 54 47 41 27 20 11 349 350 13 12 13 15 12 6 8 20 10 355 339 342 358 1 359 356 354 354 356 352 349 342 339 343 340 333 342 346 346 348 349 340
45 14 63 159 154 84 87 231 346 309 273 241 207 204 181 126 76 93 192 219 196 164 150 125 131 134 134 131 126 112 171 140 154 160 161 128 95 81 79 90 97 87 76 58 37 29 47 50 54 38 19 5 2 9 4 9 21 18 11 10 19 15 354 337 343 2 10 5 1 357 352 351 351 346 341 343 337 337 339 344 343 344 355 357 357 2
17 95 320 93 81 138 160 114 199 234 238 179 278 169 180 89 193 215 237 155 129 140 147 127 124 127 118 117 112 116 131 130 136 135 124 99 102 109 91 76 62 51 46 53 46 42 44 44 29 28 20 10 6 3 9 21 31 26 24 25 18 359 348 355 358 6 10 5 356 353 351 350 347 347 345 342 346 343 341 340 344 350 358 5 6 3
201 114 195 144 159 72 49 83 44 138 253 150 164 55 39 120 231 188 117 87 124 131 125 121 125 138 122 112 116 124 126 123 119 112 105 106 96 88 79 71 68 66 53 35 29 24 60 48 32 34 22 7 9 11 15 33 42 37 33 28 7 357 2 1 0 2 3 359 353 349 348 348 347 347 345 345 344 346 344 346 353 355 3 8 5 359
196 90 253 256 177 145 119 150 195 213 207 177 132 170 225 198 162 141 125 122 135 127 125 119 119 134 126 122 123 111 111 108 97 109 101 95 95 88 80 74 65 47 37 39 62 44 60 55 39 36 23 18 17 21 27 46 51 40 35 17 351 356 1 0 356 359 1 357 351 350 350 349 348 348 348 347 348 350 354 357 358 357 3 2 2 357
217 165 181 144 215 124 192 214 246 248 201 5 137 142 116 122 125 134 118 131 136 120 132 121 133 131 122 117 114 117 109 113 119 116 109 110 101 94 87 83 81 74 59 56 47 45 59 63 49 40 31 22 27 35 44 46 49 41 30 359 354 359 1 360 1 5 2 357 355 356 352 351 351 351 350 349 352 354 354 0 1 356 354 356 359 359
4 138 139 89 100 158 72 116 182 58 80 63 44 82 123 107 101 118 121 113 94 127 139 130 135 130 124 120 112 104 117 126 108 102 101 104 103 105 109 76 43 40 45 50 45 45 54 51 50 46 37 29 35 48 49 47 44 41 11 355 2 0 0 2 5 6 4 1 3 359 357 355 353 351 350 349 353 353 356 1 356 354 348 352 354 356
191 135 62 109 185 71 97 292 98 118 92 94 91 65 68 92 118 120 106 108 124 118 109 114 123 123 120 110 111 120 123 119 109 111 113 113 111 109 83 61 47 59 71 70 59 64 47 51 47 39 35 41 37 50 48 46 41 32 11 9 360 359 0 9 9 5 6 10 6 4 1 359 355 351 348 350 351 354 357 356 356 353 351 351 352 354
269 153 78 108 102 115 201 187 158 96 95 116 122 114 106 102 94 95 111 117 114 107 110 117 110 106 110 106 117 114 119 117 112 116 108 105 101 84 69 62 62 67 62 88 72 66 59 55 56 41 42 50 51 50 46 40 32 20 14 9 3 0 6 14 8 6 10 13 8 6 0 358 353 352 349 350 352 352 349 352 352 352 352 349 352 352
167 100 144 165 99 64 63 60 99 80 56 48 87 103 128 128 118 113 114 115 112 107 105 98 110 125 114 125 117 113 108 110 117 119 116 121 93 76 74 73 84 98 95 69 53 61 65 59 52 47 56 63 59 55 44 36 24 17 16 11 7 5 11 11 6 7 14 13 8 5 0 356 352 348 347 348 347 345 343 342 340 339 337 343 352 350
92 91 142 96 109 157 169 184 150 117 200 217 165 147 139 133 123 123 119 113 116 116 116 110 95 98 113 124 119 113 117 122 123 117 113 115 117 102 79 85 94 94 85 92 73 57 52 51 62 60 69 65 56 49 41 30 22 16 17 13 12 11 16 10 8 8 10 11 8 2 356 353 349 348 347 349 346 342 336 337 337 335 341 342 344 346
141 172 149 151 157 202 225 178 172 153 148 167 164 158 142 142 128 129 132 132 127 124 123 119 116 102 100 106 118 115 117 120 124 114 113 115 108 99 108 111 103 91 81 69 62 45 49 43 57 71 70 61 52 46 36 29 18 18 15 15 13 16 17 13 11 6 5 6 9 358 352 348 346 346 348 347 346 344 344 337 338 348 359 351 344 341